Location: Unspecified
(43.8044°N, 11.0278°E)
Time: 15:30:02
(UTC+01:00)

Resurs 1-4 Rocket - Visible Passes

Search period start: 28 November 2014 00:00
Search period end: 08 December 2014 00:00
Orbit: 800 x 815 km, 98.4° (Epoch: 27 November)

Date Brightness Start Highest point End Pass type
(mag) Time Alt. Az. Time Alt. Az. Time Alt. Az.
28 Nov 4.3 04:40:44 10° N 04:41:26 14° N 04:41:26 14° N visible
29 Nov 4.6 04:16:13 10° NNE 04:16:33 12° NNE 04:16:33 12° NNE visible
30 Nov 4.2 05:32:32 10° NNW 05:32:45 11° NNW 05:32:45 11° NNW visible
01 Dec 4.3 05:07:35 10° N 05:07:52 11° N 05:07:52 11° N visible
02 Dec 4.5 04:42:53 10° N 04:43:00 11° N 04:43:00 11° N visible
